This is the latest recevied weather packets stored in our database for station/object KA1AL. If no packets are shown the sender has not sent any weather packets the latest 10 day(s).
| Time | Temp. | Humidity | Pressure | Rain* | Wind** | Luminosity | Snow |
|---|---|---|---|---|---|---|---|
| 1777980566 | 10° C | 84% | 1006.5 hPa | 0 mm | - | 149 W/m² | - |
| 1777980264 | 10° C | 85% | 1006.8 hPa | 0 mm | - | 138 W/m² | - |
| 1777979960 | 9.44° C | 85% | 1006.7 hPa | 0 mm | - | 120 W/m² | - |
| 1777979655 | 9.44° C | 86% | 1006.7 hPa | 0 mm | - | 103 W/m² | - |
| 1777979352 | 8.89° C | 86% | 1006.4 hPa | 0 mm | - | 107 W/m² | - |
| 1777979049 | 8.89° C | 86% | 1006.7 hPa | 0 mm | - | 95 W/m² | - |
| 1777978745 | 8.89° C | 86% | 1006.7 hPa | 0 mm | - | 91 W/m² | - |
| 1777978442 | 8.89° C | 87% | 1006.8 hPa | 0 mm | - | 86 W/m² | - |
| 1777978138 | 8.89° C | 87% | 1006.6 hPa | 0 mm | - | 80 W/m² | - |
| 1777977836 | 8.89° C | 86% | 1006.6 hPa | 0 mm | - | 75 W/m² | - |
| 1777977531 | 8.33° C | 87% | 1006.4 hPa | 0 mm | - | 71 W/m² | - |
| 1777977229 | 8.33° C | 87% | 1006.5 hPa | 0 mm | - | 65 W/m² | - |
| 1777976926 | 7.78° C | 88% | 1006.5 hPa | 0 mm | - | 56 W/m² | - |
| 1777976623 | 7.78° C | 88% | 1006.3 hPa | 0 mm | - | 49 W/m² | - |
| 1777976319 | 7.78° C | 88% | 1006.5 hPa | 0 mm | - | 42 W/m² | - |
| 1777976014 | 7.78° C | 89% | 1006.6 hPa | 0 mm | - | 38 W/m² | - |
| 1777975710 | 7.78° C | 89% | 1006.7 hPa | 0 mm | - | 32 W/m² | - |
| 1777975407 | 7.78° C | 89% | 1006.4 hPa | 0 mm | - | 24 W/m² | - |
| 1777975102 | 7.78° C | 89% | 1006.4 hPa | 0 mm | - | 19 W/m² | - |
| 1777974801 | 7.22° C | 90% | 1006.4 hPa | 0 mm | - | 17 W/m² | - |
| 1777974496 | 7.22° C | 90% | 1006.5 hPa | 0 mm | - | 14 W/m² | - |
| 1777974193 | 7.78° C | 90% | 1006.2 hPa | 0 mm | - | 10 W/m² | - |
| 1777973889 | 7.78° C | 89% | 1006.6 hPa | 0 mm | - | 6 W/m² | - |
| 1777973587 | 7.78° C | 89% | 1006.4 hPa | 0 mm | - | 4 W/m² | - |
| 1777973283 | 7.22° C | 90% | 1006.3 hPa | 0 mm | - | 2 W/m² | - |
* Rain latest hour (hover to see other rain measurements)
** Current wind speed in m/s (hover to see current wind gust speed)